Nenana, AK

12:02 PM AKDT on September 28, 2016 (GMT -0800)
Nenana Municipal

Weather History for PANN - May, 2014

Change the Weather History Date:

Monday, May 12, 2014

  Actual Average Record
Temperature  
Mean Temperature 58 °F -  
Max Temperature 72 °F 55 °F 77 °F (2016)
Min Temperature 46 °F 32 °F 32 °F (1964)
Degree Days  
Heating Degree Days 6    
Growing Degree Days 8 (Base 50)    
Moisture  
Dew Point 31 °F    
Average Humidity 49    
Maximum Humidity 100    
Minimum Humidity 16    
Precipitation  
Precipitation 0.12 in - - ()
Sea Level Pressure  
Sea Level Pressure 30.23 in    
Wind  
Wind Speed 2 mph (NNE)    
Max Wind Speed 8 mph    
Max Gust Speed -    
Visibility 9 miles    
Events Rain    
Averages and records for this station are not official NWS values.
T = Trace of Precipitation, MM = Missing Value Source: NWS Daily Summary

Daily Weather History Graph

Daily Weather History Graph

Search for Another Location

Airport or City:

Trip Planner

Search our weather history database for the weather conditions in past years. The results will help you decide how hot, cold, wet, or windy it might be!

Date:

Astronomy

May. 12, 2014 Rise Set
Actual Time 4:46 AM AKDT 11:01 PM AKDT
Civil Twilight 3:08 AM AKDT 12:43 AM AKDT
Nautical Twilight Sun does not set Sun does not set
Astronomical Twilight Sun does not set Sun does not set
Moon 8:18 PM AKDT (5/12) 4:36 AM AKDT (5/12)
Length of Visible Light 21h 35m
Length of Day
18h 15m
Waxing Gibbous, 95% of the Moon is Illuminated
May 12
Waxing Gibbous
May 14
Full
May 21
Last Quarter
May 28
New
Jun 5
First Quarter

Hourly Weather History & Observations

Time (AKDT) Temp. Windchill Dew Point Humidity Pressure Visibility Wind Dir Wind Speed Gust Speed Precip Events Conditions
12:53 AM 43.0 °F - 30.0 °F 60% 30.23 in 10.0 mi Calm Calm - N/A   Clear
1:53 AM 39.9 °F - 34.0 °F 79% 30.24 in 10.0 mi Calm Calm - N/A   Clear
2:53 AM 37.0 °F - 30.0 °F 76% 30.25 in 10.0 mi Calm Calm - N/A   Clear
3:53 AM 36.0 °F - 30.0 °F 79% 30.25 in 10.0 mi Calm Calm - N/A   Mostly Cloudy
4:53 AM 35.1 °F 32.2 °F 30.9 °F 85% 30.25 in 10.0 mi SW 3.5 mph - N/A   Overcast
6:53 AM 41.0 °F - 28.9 °F 62% 30.27 in 10.0 mi Calm Calm - N/A   Clear
7:53 AM 45.0 °F 42.6 °F 32.0 °F 60% 30.27 in 10.0 mi East 4.6 mph - N/A   Clear
8:53 AM 50.0 °F - 30.9 °F 48% 30.27 in 10.0 mi ESE 3.5 mph - N/A   Clear
9:53 AM 53.1 °F - 30.9 °F 43% 30.27 in 10.0 mi Calm Calm - N/A   Clear
10:53 AM 57.9 °F - 28.9 °F 33% 30.27 in 10.0 mi WNW 3.5 mph - N/A   Clear
11:53 AM 62.1 °F - 28.9 °F 29% 30.26 in 7.0 mi North 4.6 mph - N/A   Mostly Cloudy
12:53 PM 64.0 °F - 28.9 °F 27% 30.25 in 7.0 mi Calm Calm - N/A   Overcast
1:53 PM 66.9 °F - 28.0 °F 23% 30.24 in 5.0 mi Calm Calm - N/A   Haze
2:53 PM 70.0 °F - 25.0 °F 18% 30.22 in 6.0 mi NNE 5.8 mph - N/A   Haze
3:53 PM 71.1 °F - 23.0 °F 16% 30.21 in 9.0 mi Variable 5.8 mph - N/A   Clear
4:53 PM 71.1 °F - 23.0 °F 16% 30.20 in 10.0 mi Variable 3.5 mph - N/A   Clear
5:53 PM 71.1 °F - 24.1 °F 17% 30.19 in 10.0 mi NW 3.5 mph - N/A   Clear
6:53 PM 71.1 °F - 24.1 °F 17% 30.17 in 10.0 mi North 6.9 mph - N/A   Clear
7:53 PM 71.1 °F - 21.9 °F 16% 30.17 in 10.0 mi West 4.6 mph - N/A   Clear
8:53 PM 69.1 °F - 23.0 °F 18% 30.16 in 10.0 mi Calm Calm - N/A   Clear
10:53 PM 55.9 °F - 32.0 °F 40% 30.16 in 10.0 mi East 3.5 mph - N/A   Clear
11:53 PM 52.0 °F - 32.0 °F 47% 30.16 in 10.0 mi East 4.6 mph - N/A   Clear